"Period start","avg(HW err(1)/warn(2) (#))","avg(Visibility (m))","avg(Weather code (#))","avg(Precip intensity (mm/h))","min(HW err(1)/warn(2) (#))","max(HW err(1)/warn(2) (#))","std(HW err(1)/warn(2) (#))","med(HW err(1)/warn(2) (#))","min(Visibility (m))","max(Visibility (m))","std(Visibility (m))","med(Visibility (m))","min(Weather code (#))","max(Weather code (#))","std(Weather code (#))","med(Weather code (#))","min(Precip intensity (mm/h))","max(Precip intensity (mm/h))","std(Precip intensity (mm/h))","med(Precip intensity (mm/h))"
2013-07-22 00:00:00,2,49782,0,0.00,2,2,0,2,47817,50000,655,50000,0,0,0,0,0.00,0.00,0.00,0.00
2013-07-22 00:10:00,2,50000,0,0.00,2,2,0,2,50000,50000,0,50000,0,0,0,0,0.00,0.00,0.00,0.00
2013-07-22 00:20:00,2,49626,0,0.00,2,2,0,2,46923,50000,913,50000,0,0,0,0,0.00,0.00,0.00,0.00
2013-07-22 00:30:00,2,38786,0,0.00,2,2,0,2,8722,50000,15443,49008,0,0,0,0,0.00,0.00,0.00,0.00
2013-07-22 00:40:00,2,26558,12,0.14,2,2,0,2,7752,50000,16205,22070,0,40,18,0,0.00,1.40,0.42,0.00
2013-07-22 00:50:00,2,39758,4,0.02,2,2,0,2,10456,50000,14740,49296,0,40,12,0,0.00,0.20,0.06,0.00
2013-07-22 01:00:00,2,22028,51,0.89,2,2,0,2,8413,43488,11928,19806,40,61,8,51,0.00,1.85,0.61,0.85
2013-07-22 01:10:00,2,48424,6,0.00,2,2,0,2,41851,50000,2677,50000,0,61,18,0,0.00,0.00,0.00,0.00
2013-07-22 01:20:00,2,44943,0,0.00,2,2,0,2,38335,50000,4109,46152,0,0,0,0,0.00,0.00,0.00,0.00
2013-07-22 01:30:00,2,37832,0,0.00,2,2,0,2,14082,50000,11578,42341,0,0,0,0,0.00,0.00,0.00,0.00
2013-07-22 01:40:00,2,35142,0,0.00,2,2,0,2,14415,48020,10303,38082,0,0,0,0,0.00,0.00,0.00,0.00
2013-07-22 01:50:00,2,48548,0,0.00,2,2,0,2,38027,50000,3549,50000,0,0,0,0,0.00,0.00,0.00,0.00
2013-07-22 02:00:00,2,49155,0,0.00,2,2,0,2,41548,50000,2536,50000,0,0,0,0,0.00,0.00,0.00,0.00
2013-07-22 02:10:00,2,49674,0,0.00,2,2,0,2,47659,50000,725,50000,0,0,0,0,0.00,0.00,0.00,0.00
2013-07-22 02:20:00,2,48534,0,0.00,2,2,0,2,44684,50000,1859,49542,0,0,0,0,0.00,0.00,0.00,0.00
2013-07-22 02:30:00,2,39826,0,0.00,2,2,0,2,14311,50000,10200,41078,0,0,0,0,0.00,0.00,0.00,0.00
2013-07-22 02:40:00,2,24069,52,3.39,2,2,0,2,9052,50000,11469,21158,0,62,18,61,0.00,19.80,5.71,1.20
2013-07-22 02:50:00,2,15976,61,7.08,2,2,0,2,11703,22219,3162,15223,61,62,0,61,1.20,13.00,4.02,8.12
2013-07-22 03:00:00,2,43974,37,1.21,2,2,0,2,23304,50000,7974,46956,0,62,30,61,0.00,10.45,3.10,0.03
2013-07-22 03:10:00,2,42078,0,0.00,2,2,0,2,32791,50000,6320,43537,0,0,0,0,0.00,0.00,0.00,0.00
2013-07-22 03:20:00,2,48591,0,0.00,2,2,0,2,40859,50000,2970,50000,0,0,0,0,0.00,0.00,0.00,0.00
2013-07-22 03:30:00,2,37355,37,1.67,2,2,0,2,15759,50000,12930,41430,0,61,30,61,0.00,8.95,2.64,0.62
2013-07-22 03:40:00,2,44808,24,0.53,2,2,0,2,26941,50000,6990,48156,0,61,30,0,0.00,4.05,1.21,0.00
2013-07-22 03:50:00,2,33434,6,0.33,2,2,0,2,13398,46847,11265,36276,0,61,18,0,0.00,3.30,0.99,0.00
2013-07-22 04:00:00,2,11308,62,16.18,2,2,0,2,6766,34504,8027,8564,61,62,0,62,0.85,33.15,9.46,13.68
2013-07-22 04:10:00,2,9376,62,19.52,2,2,0,2,5762,15069,3009,8310,61,62,0,62,6.05,33.90,8.61,16.95
2013-07-22 04:20:00,2,28652,43,4.36,2,2,0,2,8902,50000,13194,28157,0,62,28,61,0.00,22.60,7.26,0.05
2013-07-22 04:30:00,2,46914,0,0.00,2,2,0,2,28108,50000,6512,50000,0,0,0,0,0.00,0.00,0.00,0.00
2013-07-22 04:40:00,2,5972,62,30.59,2,2,0,2,2798,11166,2057,5894,61,63,0,62,6.30,67.35,15.41,30.65
2013-07-22 04:50:00,2,24526,37,11.21,2,2,0,2,3093,50000,19078,21770,0,63,30,61,0.00,53.25,18.15,0.12
2013-07-22 05:00:00,2,47054,0,0.00,2,2,0,2,39870,50000,3508,48958,0,0,0,0,0.00,0.00,0.00,0.00
2013-07-22 05:10:00,2,47253,0,0.00,2,2,0,2,35493,50000,4421,49107,0,0,0,0,0.00,0.00,0.00,0.00
2013-07-22 05:20:00,2,49179,0,0.00,2,2,0,2,45008,50000,1535,50000,0,0,0,0,0.00,0.00,0.00,0.00
2013-07-22 05:30:00,2,48500,0,0.00,2,2,0,2,45569,50000,1888,49856,0,0,0,0,0.00,0.00,0.00,0.00
2013-07-22 05:40:00,2,47782,0,0.00,2,2,0,2,41101,50000,2711,48411,0,0,0,0,0.00,0.00,0.00,0.00
2013-07-22 05:50:00,2,47402,0,0.00,2,2,0,2,43294,50000,2657,48028,0,0,0,0,0.00,0.00,0.00,0.00
2013-07-22 06:00:00,2,48441,0,0.00,2,2,0,2,41275,50000,2742,50000,0,0,0,0,0.00,0.00,0.00,0.00
2013-07-22 06:10:00,2,43688,17,0.05,2,2,0,2,27327,50000,7532,46754,0,61,27,0,0.00,0.35,0.10,0.00
2013-07-22 06:20:00,2,47776,5,0.00,2,2,0,2,39017,50000,4236,50000,0,51,15,0,0.00,0.00,0.00,0.00
2013-07-22 06:30:00,2,43563,0,0.00,2,2,0,2,35800,50000,5124,42752,0,0,0,0,0.00,0.00,0.00,0.00
2013-07-22 06:40:00,2,50000,0,0.00,2,2,0,2,50000,50000,0,50000,0,0,0,0,0.00,0.00,0.00,0.00
2013-07-22 06:50:00,2,43227,0,0.00,2,2,0,2,26593,50000,8744,47992,0,0,0,0,0.00,0.00,0.00,0.00
2013-07-22 07:00:00,2,49224,0,0.00,2,2,0,2,46249,50000,1277,50000,0,0,0,0,0.00,0.00,0.00,0.00
2013-07-22 07:10:00,2,48175,0,0.00,2,2,0,2,40843,50000,2950,49358,0,0,0,0,0.00,0.00,0.00,0.00
2013-07-22 07:20:00,2,49772,0,0.00,2,2,0,2,48505,50000,483,50000,0,0,0,0,0.00,0.00,0.00,0.00
2013-07-22 07:30:00,2,47660,0,0.00,2,2,0,2,37706,50000,3780,50000,0,0,0,0,0.00,0.00,0.00,0.00
2013-07-22 07:40:00,2,49567,0,0.00,2,2,0,2,47629,50000,811,50000,0,0,0,0,0.00,0.00,0.00,0.00
2013-07-22 07:50:00,2,49737,0,0.00,2,2,0,2,47366,50000,790,50000,0,0,0,0,0.00,0.00,0.00,0.00
2013-07-22 08:00:00,2,49528,0,0.00,2,2,0,2,46224,50000,1137,50000,0,0,0,0,0.00,0.00,0.00,0.00
2013-07-22 08:10:00,2,47566,0,0.00,2,2,0,2,38584,50000,3417,49160,0,0,0,0,0.00,0.00,0.00,0.00
2013-07-22 08:20:00,2,48379,0,0.00,2,2,0,2,39780,50000,3101,50000,0,0,0,0,0.00,0.00,0.00,0.00
2013-07-22 08:30:00,2,49764,0,0.00,2,2,0,2,48199,50000,547,50000,0,0,0,0,0.00,0.00,0.00,0.00
2013-07-22 08:40:00,2,49605,0,0.00,2,2,0,2,47734,50000,801,50000,0,0,0,0,0.00,0.00,0.00,0.00
2013-07-22 08:50:00,2,47499,0,0.00,2,2,0,2,40907,50000,3148,49609,0,0,0,0,0.00,0.00,0.00,0.00
2013-07-22 09:00:00,2,46042,0,0.00,2,2,0,2,39540,50000,4165,47590,0,0,0,0,0.00,0.00,0.00,0.00
2013-07-22 09:10:00,2,48234,0,0.00,2,2,0,2,42143,50000,2331,49106,0,0,0,0,0.00,0.00,0.00,0.00
2013-07-22 09:20:00,2,48654,0,0.00,2,2,0,2,42874,50000,2168,49938,0,0,0,0,0.00,0.00,0.00,0.00
2013-07-22 09:30:00,2,50000,0,0.00,2,2,0,2,50000,50000,0,50000,0,0,0,0,0.00,0.00,0.00,0.00
2013-07-22 09:40:00,2,49643,0,0.00,2,2,0,2,46697,50000,985,50000,0,0,0,0,0.00,0.00,0.00,0.00
2013-07-22 09:50:00,2,44750,0,0.00,2,2,0,2,31528,50000,6017,47368,0,0,0,0,0.00,0.00,0.00,0.00
2013-07-22 10:00:00,2,48530,0,0.00,2,2,0,2,44075,50000,2084,49604,0,0,0,0,0.00,0.00,0.00,0.00
2013-07-22 10:10:00,2,49149,0,0.00,2,2,0,2,46626,50000,1256,50000,0,0,0,0,0.00,0.00,0.00,0.00
2013-07-22 10:20:00,2,49791,0,0.00,2,2,0,2,49173,50000,331,50000,0,0,0,0,0.00,0.00,0.00,0.00
2013-07-22 10:30:00,2,47118,0,0.00,2,2,0,2,37224,50000,4667,49796,0,0,0,0,0.00,0.00,0.00,0.00
2013-07-22 10:40:00,2,47089,0,0.00,2,2,0,2,36779,50000,4531,49896,0,0,0,0,0.00,0.00,0.00,0.00
2013-07-22 10:50:00,2,47308,0,0.00,2,2,0,2,36447,50000,4271,49748,0,0,0,0,0.00,0.00,0.00,0.00
2013-07-22 11:00:00,2,49359,0,0.00,2,2,0,2,46306,50000,1197,50000,0,0,0,0,0.00,0.00,0.00,0.00
2013-07-22 11:10:00,2,48683,0,0.00,2,2,0,2,40757,50000,2721,50000,0,0,0,0,0.00,0.00,0.00,0.00
2013-07-22 11:20:00,2,49905,0,0.00,0,2,1,2,49048,50000,286,50000,0,0,0,0,0.00,0.00,0.00,0.00
2013-07-22 11:30:00,2,50000,0,0.00,2,2,0,2,50000,50000,0,50000,0,0,0,0,0.00,0.00,0.00,0.00
2013-07-22 11:40:00,2,49413,0,0.00,2,2,0,2,46660,50000,1084,50000,0,0,0,0,0.00,0.00,0.00,0.00
2013-07-22 11:50:00,2,47995,0,0.00,2,2,0,2,42120,50000,2322,48244,0,0,0,0,0.00,0.00,0.00,0.00
2013-07-22 12:00:00,2,50000,0,0.00,2,2,0,2,50000,50000,0,50000,0,0,0,0,0.00,0.00,0.00,0.00
2013-07-22 12:10:00,2,49766,0,0.00,2,2,0,2,48562,50000,482,50000,0,0,0,0,0.00,0.00,0.00,0.00
2013-07-22 12:20:00,2,49204,0,0.00,2,2,0,2,42044,50000,2387,50000,0,0,0,0,0.00,0.00,0.00,0.00
2013-07-22 12:30:00,2,48239,0,0.00,2,2,0,2,45470,50000,1767,48573,0,0,0,0,0.00,0.00,0.00,0.00
2013-07-22 12:40:00,2,50000,0,0.00,2,2,0,2,50000,50000,0,50000,0,0,0,0,0.00,0.00,0.00,0.00
2013-07-22 12:50:00,2,49273,0,0.00,2,2,0,2,47029,50000,1093,50000,0,0,0,0,0.00,0.00,0.00,0.00
2013-07-22 13:00:00,2,49714,0,0.00,2,2,0,2,47135,50000,860,50000,0,0,0,0,0.00,0.00,0.00,0.00
2013-07-22 13:10:00,2,50000,0,0.00,2,2,0,2,50000,50000,0,50000,0,0,0,0,0.00,0.00,0.00,0.00
2013-07-22 13:20:00,2,49951,0,0.00,2,2,0,2,49508,50000,148,50000,0,0,0,0,0.00,0.00,0.00,0.00
2013-07-22 13:30:00,2,50000,0,0.00,2,2,0,2,50000,50000,0,50000,0,0,0,0,0.00,0.00,0.00,0.00
2013-07-22 13:40:00,2,50000,0,0.00,2,2,0,2,50000,50000,0,50000,0,0,0,0,0.00,0.00,0.00,0.00
2013-07-22 13:50:00,2,50000,0,0.00,2,2,0,2,50000,50000,0,50000,0,0,0,0,0.00,0.00,0.00,0.00
2013-07-22 14:00:00,2,50000,0,0.00,2,2,0,2,50000,50000,0,50000,0,0,0,0,0.00,0.00,0.00,0.00
2013-07-22 14:10:00,2,49999,0,0.00,2,2,0,2,49991,50000,3,50000,0,0,0,0,0.00,0.00,0.00,0.00
2013-07-22 14:20:00,2,50000,0,0.00,2,2,0,2,50000,50000,0,50000,0,0,0,0,0.00,0.00,0.00,0.00
2013-07-22 14:30:00,2,50000,0,0.00,2,2,0,2,50000,50000,0,50000,0,0,0,0,0.00,0.00,0.00,0.00
2013-07-22 14:40:00,2,49811,0,0.00,2,2,0,2,48110,50000,567,50000,0,0,0,0,0.00,0.00,0.00,0.00
2013-07-22 14:50:00,2,50000,0,0.00,2,2,0,2,50000,50000,0,50000,0,0,0,0,0.00,0.00,0.00,0.00
2013-07-22 15:00:00,2,50000,0,0.00,2,2,0,2,50000,50000,0,50000,0,0,0,0,0.00,0.00,0.00,0.00
2013-07-22 15:10:00,2,50000,0,0.00,2,2,0,2,50000,50000,0,50000,0,0,0,0,0.00,0.00,0.00,0.00
2013-07-22 15:20:00,2,50000,0,0.00,2,2,0,2,50000,50000,0,50000,0,0,0,0,0.00,0.00,0.00,0.00
2013-07-22 15:30:00,2,50000,0,0.00,2,2,0,2,50000,50000,0,50000,0,0,0,0,0.00,0.00,0.00,0.00
2013-07-22 15:40:00,2,50000,0,0.00,2,2,0,2,50000,50000,0,50000,0,0,0,0,0.00,0.00,0.00,0.00
2013-07-22 15:50:00,2,49986,0,0.00,2,2,0,2,49855,50000,44,50000,0,0,0,0,0.00,0.00,0.00,0.00
2013-07-22 16:00:00,2,49949,0,0.00,2,2,0,2,49492,50000,152,50000,0,0,0,0,0.00,0.00,0.00,0.00
2013-07-22 16:10:00,2,49419,0,0.00,2,2,0,2,47037,50000,921,50000,0,0,0,0,0.00,0.00,0.00,0.00
2013-07-22 16:20:00,2,49213,0,0.00,2,2,0,2,46923,50000,1225,50000,0,0,0,0,0.00,0.00,0.00,0.00
2013-07-22 16:30:00,2,50000,0,0.00,2,2,0,2,50000,50000,0,50000,0,0,0,0,0.00,0.00,0.00,0.00
2013-07-22 16:40:00,2,48038,0,0.00,2,2,0,2,43264,50000,2333,49210,0,0,0,0,0.00,0.00,0.00,0.00
2013-07-22 16:50:00,2,48631,0,0.00,2,2,0,2,46345,50000,1171,48746,0,0,0,0,0.00,0.00,0.00,0.00
2013-07-22 17:00:00,2,49755,0,0.00,2,2,0,2,48494,50000,506,50000,0,0,0,0,0.00,0.00,0.00,0.00
2013-07-22 17:10:00,2,50000,0,0.00,2,2,0,2,50000,50000,0,50000,0,0,0,0,0.00,0.00,0.00,0.00
2013-07-22 17:20:00,2,49972,0,0.00,2,2,0,2,49725,50000,82,50000,0,0,0,0,0.00,0.00,0.00,0.00
2013-07-22 17:30:00,2,50000,0,0.00,2,2,0,2,50000,50000,0,50000,0,0,0,0,0.00,0.00,0.00,0.00
2013-07-22 17:40:00,2,50000,0,0.00,2,2,0,2,50000,50000,0,50000,0,0,0,0,0.00,0.00,0.00,0.00
2013-07-22 17:50:00,0,50000,0,0.00,0,2,1,0,50000,50000,0,50000,0,0,0,0,0.00,0.00,0.00,0.00
2013-07-22 18:00:00,0,50000,0,0.00,0,0,0,0,50000,50000,0,50000,0,0,0,0,0.00,0.00,0.00,0.00
2013-07-22 18:10:00,0,49971,0,0.00,0,0,0,0,49714,50000,86,50000,0,0,0,0,0.00,0.00,0.00,0.00
2013-07-22 18:20:00,0,49985,0,0.00,0,0,0,0,49852,50000,44,50000,0,0,0,0,0.00,0.00,0.00,0.00
2013-07-22 18:30:00,0,50000,0,0.00,0,0,0,0,50000,50000,0,50000,0,0,0,0,0.00,0.00,0.00,0.00
2013-07-22 18:40:00,0,50000,0,0.00,0,0,0,0,50000,50000,0,50000,0,0,0,0,0.00,0.00,0.00,0.00
2013-07-22 18:50:00,2,49979,0,0.00,0,2,1,2,49792,50000,62,50000,0,0,0,0,0.00,0.00,0.00,0.00
2013-07-22 19:00:00,2,47679,0,0.00,2,2,0,2,42677,50000,2824,49124,0,0,0,0,0.00,0.00,0.00,0.00
2013-07-22 19:10:00,2,48684,0,0.00,2,2,0,2,43260,50000,2120,50000,0,0,0,0,0.00,0.00,0.00,0.00
2013-07-22 19:20:00,2,48698,0,0.00,2,2,0,2,40997,50000,2656,50000,0,0,0,0,0.00,0.00,0.00,0.00
2013-07-22 19:30:00,2,48138,0,0.00,2,2,0,2,40320,50000,2946,50000,0,0,0,0,0.00,0.00,0.00,0.00
2013-07-22 19:40:00,2,49705,0,0.00,2,2,0,2,48107,50000,619,50000,0,0,0,0,0.00,0.00,0.00,0.00
2013-07-22 19:50:00,2,49592,0,0.00,2,2,0,2,48299,50000,639,50000,0,0,0,0,0.00,0.00,0.00,0.00
2013-07-22 20:00:00,2,48238,0,0.00,2,2,0,2,44769,50000,1816,48535,0,0,0,0,0.00,0.00,0.00,0.00
2013-07-22 20:10:00,2,48603,0,0.00,2,2,0,2,41874,50000,2597,50000,0,0,0,0,0.00,0.00,0.00,0.00
2013-07-22 20:20:00,2,49637,0,0.00,2,2,0,2,47729,50000,736,50000,0,0,0,0,0.00,0.00,0.00,0.00
2013-07-22 20:30:00,2,49270,0,0.00,2,2,0,2,45965,50000,1233,50000,0,0,0,0,0.00,0.00,0.00,0.00
2013-07-22 20:40:00,2,49973,0,0.00,2,2,0,2,49733,50000,80,50000,0,0,0,0,0.00,0.00,0.00,0.00
2013-07-22 20:50:00,2,48414,0,0.00,2,2,0,2,40893,50000,2645,49569,0,0,0,0,0.00,0.00,0.00,0.00
2013-07-22 21:00:00,2,47869,0,0.00,2,2,0,2,39343,50000,3531,50000,0,0,0,0,0.00,0.00,0.00,0.00
2013-07-22 21:10:00,2,49236,0,0.00,2,2,0,2,44883,50000,1505,50000,0,0,0,0,0.00,0.00,0.00,0.00
2013-07-22 21:20:00,2,49616,0,0.00,2,2,0,2,46158,50000,1153,50000,0,0,0,0,0.00,0.00,0.00,0.00
2013-07-22 21:30:00,2,46998,0,0.00,2,2,0,2,37156,50000,4090,49128,0,0,0,0,0.00,0.00,0.00,0.00
2013-07-22 21:40:00,2,46678,0,0.00,2,2,0,2,40121,50000,3851,48606,0,0,0,0,0.00,0.00,0.00,0.00
2013-07-22 21:50:00,2,47975,0,0.00,2,2,0,2,39116,50000,3171,49264,0,0,0,0,0.00,0.00,0.00,0.00
2013-07-22 22:00:00,2,45248,0,0.00,2,2,0,2,31912,50000,5761,47845,0,0,0,0,0.00,0.00,0.00,0.00
2013-07-22 22:10:00,2,41396,0,0.00,2,2,0,2,33227,47444,4480,41772,0,0,0,0,0.00,0.00,0.00,0.00
2013-07-22 22:20:00,2,44655,0,0.00,2,2,0,2,36625,50000,4015,44127,0,0,0,0,0.00,0.00,0.00,0.00
2013-07-22 22:30:00,2,40032,0,0.00,2,2,0,2,33546,45455,3802,41162,0,0,0,0,0.00,0.00,0.00,0.00
2013-07-22 22:40:00,2,45329,0,0.00,2,2,0,2,34933,50000,5187,46656,0,0,0,0,0.00,0.00,0.00,0.00
2013-07-22 22:50:00,2,45841,0,0.00,2,2,0,2,38884,50000,5032,49820,0,0,0,0,0.00,0.00,0.00,0.00
2013-07-22 23:00:00,2,40681,0,0.00,2,2,0,2,30786,50000,6785,39428,0,0,0,0,0.00,0.00,0.00,0.00
2013-07-22 23:10:00,2,45484,0,0.00,2,2,0,2,32908,50000,6001,49213,0,0,0,0,0.00,0.00,0.00,0.00
2013-07-22 23:20:00,2,46198,0,0.00,2,2,0,2,39938,50000,3423,46538,0,0,0,0,0.00,0.00,0.00,0.00
2013-07-22 23:30:00,2,47628,0,0.00,2,2,0,2,40022,50000,2988,48468,0,0,0,0,0.00,0.00,0.00,0.00
2013-07-22 23:40:00,2,43456,0,0.00,2,2,0,2,35192,50000,5682,42041,0,0,0,0,0.00,0.00,0.00,0.00
2013-07-22 23:50:00,2,43148,0,0.00,2,2,0,2,31973,50000,6244,42231,0,0,0,0,0.00,0.00,0.00,0.00
